Theta_e
297 296 295 295 294 294 294 294 294 296 296 297 297 298 299 298 297 297 296 296 295 294 292 292 291 291 291 291 290 291 295 297 297 298 303 306 306 307
295 296 296 295 295 295 294 293 293 294 294 293 294 294 294 294 294 294 294 294 293 292 292 292 291 291 291 290 289 289 289 291 294 295 299 300 304 305
293 294 293 293 292 292 292 293 293 293 294 293 292 292 292 293 293 293 293 293 293 293 292 292 291 291 290 289 288 288 290 291 291 292 294 298 298 303
292 292 291 290 290 290 290 291 291 291 292 293 292 292 292 292 292 292 292 292 292 292 292 292 291 291 290 289 289 290 291 291 291 291 291 292 295 297
290 290 290 290 290 290 290 290 290 290 290 290 291 290 290 290 291 291 291 291 291 291 291 291 290 290 290 289 289 289 289 288 287 287 288 289 292 294
288 289 289 289 289 289 289 289 289 288 288 289 290 290 290 290 290 291 291 291 291 291 291 291 291 291 290 289 289 289 289 288 287 286 287 287 289 292
287 287 288 288 287 286 286 286 286 287 287 288 289 290 289 289 289 289 290 290 290 290 290 290 291 291 291 291 290 290 289 289 289 288 287 287 287 289
286 287 287 287 287 286 286 285 285 285 285 285 286 287 287 288 288 288 289 289 291 290 289 290 289 290 290 290 290 290 290 290 290 290 289 289 288 287
286 286 286 287 286 286 286 285 285 284 284 284 284 285 286 286 286 287 287 288 289 289 289 290 289 290 290 289 289 289 288 288 288 289 289 289 289 290
285 285 285 285 285 284 284 285 285 285 286 285 285 285 286 286 287 287 287 287 288 288 288 289 289 289 289 289 289 288 288 287 287 288 288 289 289 288
283 284 284 284 284 284 284 285 284 285 285 285 285 285 285 284 284 285 286 286 288 288 288 288 289 289 289 289 289 288 288 287 287 287 287 287 288 288
282 282 283 283 283 284 284 284 284 284 285 284 284 284 285 285 286 285 285 286 286 287 287 288 289 289 290 289 289 289 289 288 288 287 287 287 286 287
282 282 283 284 282 281 281 282 282 283 282 283 283 284 286 287 287 287 286 286 286 287 287 287 288 289 289 289 289 290 289 290 289 290 290 288 286 287
281 282 283 281 281 280 280 281 281 281 282 283 285 286 287 288 288 288 288 288 287 287 287 288 288 288 289 290 289 289 289 289 290 290 289 290 288 286
280 281 280 281 280 280 281 280 280 282 284 284 285 285 286 287 287 287 287 287 287 287 287 287 287 288 288 289 289 289 290 290 290 290 289 289 289 289
279 279 281 280 280 281 282 282 282 283 283 284 285 285 286 287 288 288 287 288 288 288 288 287 287 286 287 287 288 288 288 289 290 289 288 288 290 290
277 280 280 280 280 281 281 282 282 282 283 283 284 285 285 286 288 288 287 287 287 288 289 288 287 286 286 286 287 288 288 289 289 290 289 289 289 290
278 279 279 278 278 279 280 280 281 281 281 282 282 283 284 284 285 286 288 288 288 288 288 289 288 287 286 286 285 287 288 288 289 289 289 289 289 290
278 278 278 277 277 278 279 279 279 280 280 280 281 282 282 283 284 285 285 286 288 289 289 289 289 289 290 290 287 286 287 288 289 289 289 288 288 289
276 276 276 276 277 277 277 277 278 279 279 280 281 281 281 282 284 284 284 285 285 286 288 289 287 286 287 287 288 283 284 284 286 287 289 288 287 287
275 275 275 275 275 276 276 277 277 278 278 279 280 280 281 282 282 283 283 284 285 285 286 285 284 283 284 286 287 285 282 282 283 285 287 288 288 287
274 274 274 274 275 275 275 275 276 277 277 277 278 279 280 281 282 282 283 283 284 284 285 285 285 284 285 286 286 284 284 282 281 282 283 284 283 286
273 273 274 274 274 274 274 274 275 275 275 276 276 278 279 280 281 281 282 282 283 283 283 284 285 284 284 284 285 284 283 283 284 282 280 281 281 281
Wind_Speed
8 7 6 6 6 5 6 6 6 4 8 13 13 13 16 19 18 17 17 18 20 21 22 22 23 23 24 25 27 26 22 20 20 21 22 22 21 20
13 13 13 14 12 12 12 12 13 13 9 19 18 18 18 20 20 16 17 20 22 22 23 25 29 29 28 29 29 29 29 26 24 22 23 23 20 21
14 16 18 19 19 19 18 19 19 20 13 20 22 21 21 22 23 22 22 23 24 27 29 30 30 29 30 30 30 29 30 30 29 27 24 25 25 23
19 20 22 22 21 20 21 21 22 23 22 19 22 22 23 23 24 24 24 27 26 26 24 23 27 28 28 29 28 29 30 32 33 33 30 28 28 26
24 23 22 22 22 21 21 22 22 23 23 23 23 23 24 24 24 24 25 26 27 27 28 29 29 30 30 35 35 35 36 38 38 37 35 34 31 29
23 23 23 23 23 23 23 22 22 23 23 24 24 24 24 24 23 22 22 23 24 25 25 25 25 25 26 27 31 33 33 34 35 36 36 36 35 33
25 25 24 22 22 25 25 23 22 23 23 23 22 21 21 20 22 22 22 21 22 21 22 21 21 20 21 25 33 31 32 34 36 35 35 36 36 37
25 25 25 24 24 20 18 19 21 23 23 21 22 22 23 22 22 22 21 19 10 20 24 24 24 23 24 24 25 19 14 18 26 24 28 32 34 36
25 25 25 25 24 22 19 19 20 21 24 26 26 27 26 26 26 25 24 22 22 21 21 22 20 24 22 22 23 28 26 26 24 22 25 29 30 31
24 25 25 25 24 22 21 22 22 22 23 25 28 30 28 27 25 27 26 26 26 24 23 19 21 24 23 23 24 26 28 30 31 31 32 30 29 29
24 22 22 24 24 22 18 19 22 24 23 23 25 28 32 34 34 29 26 23 16 20 22 24 23 23 23 25 24 26 29 30 31 33 32 33 32 26
22 22 23 25 26 24 16 15 21 23 20 20 22 25 26 27 28 31 28 24 22 20 23 19 21 20 12 21 25 26 26 29 32 32 32 31 29 28
23 23 22 19 16 16 17 18 20 20 20 21 23 23 23 22 21 21 26 27 25 25 25 21 14 17 18 16 15 13 12 15 18 18 21 26 29 28
24 25 20 23 20 21 19 17 17 18 18 19 17 18 18 13 12 15 19 23 26 27 22 16 10 17 15 14 12 15 16 18 15 15 15 18 23 28
24 20 23 17 18 16 13 15 14 14 12 13 13 14 15 15 16 13 14 15 16 19 19 19 18 15 16 12 13 12 10 13 14 12 12 16 15 17
21 21 16 13 14 15 11 10 9 9 10 12 12 13 14 14 12 9 12 10 11 13 16 19 20 18 17 18 17 15 16 11 6 10 13 14 16 17
21 14 12 13 14 13 12 10 10 9 10 11 12 12 12 14 13 8 7 9 11 10 11 12 17 18 17 16 15 16 16 17 15 10 10 12 12 10
15 11 12 13 14 15 15 15 13 14 13 13 12 12 12 13 14 16 11 7 9 10 10 8 12 10 12 16 23 19 15 12 13 11 13 9 8 10
11 12 12 13 14 15 15 16 16 16 15 14 13 12 12 12 12 13 13 14 13 8 10 10 6 8 6 8 5 21 16 13 11 11 10 9 9 8
11 12 13 13 14 15 16 16 17 16 14 14 13 12 12 12 11 10 11 11 11 13 11 7 9 11 6 5 4 3 6 8 8 11 11 11 9 8
12 12 12 13 14 14 15 16 17 16 16 16 15 14 13 12 12 11 11 12 11 10 10 9 9 9 9 9 4 5 4 3 5 5 7 9 7 9
12 12 13 13 13 14 15 16 17 16 16 16 17 16 15 13 13 12 12 12 11 11 9 8 7 7 6 6 3 3 3 3 6 3 3 3 3 3
11 11 11 12 13 13 14 15 16 17 17 18 18 18 17 16 15 13 12 12 12 13 12 10 9 6 5 4 4 4 2 3 3 9 11 7 4 4
Wind_Direction
284 261 259 265 260 260 261 273 287 301 297 283 274 265 246 254 258 253 252 252 255 255 253 255 256 258 259 262 265 267 267 266 267 264 263 259 265 269
314 302 291 281 269 258 247 239 229 247 271 279 285 276 273 270 272 265 256 258 263 266 256 256 261 263 260 264 265 265 264 263 264 263 261 263 265 269
285 282 286 287 286 287 273 255 247 237 248 266 271 271 271 271 269 271 268 262 261 260 257 256 253 257 265 266 265 261 258 260 263 265 264 262 265 267
296 295 294 292 291 287 282 279 281 281 284 285 280 282 280 277 277 276 270 266 264 263 266 263 256 253 261 267 266 259 259 262 263 265 265 264 264 266
301 298 294 292 289 288 287 285 283 282 284 282 281 278 276 275 276 273 271 268 266 264 264 265 264 260 256 263 267 266 266 266 268 266 265 265 262 262
296 291 289 288 288 288 287 287 285 282 277 274 271 269 267 266 267 265 265 262 262 267 267 264 261 259 258 258 264 266 264 262 262 262 261 261 260 260
297 292 288 287 288 288 283 283 282 281 279 277 280 284 285 285 281 285 289 289 283 282 286 281 277 268 263 259 258 264 264 264 264 263 262 262 261 260
298 295 292 291 286 290 284 273 268 276 279 281 282 279 278 275 273 275 278 275 271 260 262 267 267 268 266 268 265 268 289 272 262 260 259 260 260 258
296 298 298 293 297 295 298 294 282 273 262 264 268 268 272 272 276 275 272 269 270 272 269 266 261 261 261 261 261 265 274 276 272 263 260 263 266 261
299 298 297 297 296 293 285 284 280 274 264 259 255 261 267 274 272 268 271 274 274 269 265 267 266 261 263 259 257 261 265 266 267 267 267 264 262 265
302 300 296 291 289 290 291 287 286 281 276 269 269 274 275 275 273 273 269 272 273 263 256 259 263 264 261 259 258 258 259 261 261 260 260 259 259 262
308 304 300 293 289 285 280 285 292 290 294 293 287 284 280 275 270 258 257 258 261 265 262 269 270 266 268 255 251 253 255 254 257 258 259 258 252 251
309 304 302 303 331 319 305 292 282 289 289 287 284 280 276 270 263 257 247 243 248 255 261 261 265 257 253 263 269 267 260 256 250 252 258 251 244 241
308 303 308 319 314 310 302 290 288 290 281 279 284 288 288 287 283 277 262 248 246 251 260 258 253 255 262 267 264 271 263 257 254 256 255 254 243 236
311 320 313 311 314 310 306 299 294 278 283 295 298 303 305 305 298 293 285 270 261 249 252 252 255 260 267 267 269 271 290 272 254 245 251 241 229 217
323 316 315 323 323 318 328 327 312 313 314 312 315 308 309 313 306 307 312 302 263 257 253 248 243 247 257 260 269 275 273 269 259 245 248 242 225 225
321 320 342 348 340 341 346 345 345 345 339 335 328 328 330 331 336 327 298 308 298 288 273 247 237 242 244 254 262 259 270 267 260 236 215 231 237 239
329 352 353 353 348 347 351 351 357 358 350 341 338 340 338 335 335 330 337 289 290 306 303 302 206 215 240 255 241 251 263 272 271 251 213 228 247 242
352 354 355 354 349 346 353 355 350 349 346 346 342 343 342 334 333 337 342 342 344 319 285 295 312 249 245 247 232 224 245 259 278 266 210 219 241 262
356 353 352 350 351 353 354 351 346 348 351 348 352 347 347 339 347 349 345 341 339 327 335 10 14 0 334 351 352 34 235 262 287 278 239 201 219 213
353 352 352 351 353 352 350 350 345 351 354 353 355 354 350 347 357 353 345 344 348 352 348 355 342 328 308 304 229 137 49 347 273 315 316 201 196 212
350 350 351 351 351 352 351 351 349 356 359 358 355 351 353 359 355 355 350 347 354 347 346 336 336 333 329 319 20 77 91 38 30 20 25 45 19 359
348 348 349 350 352 352 353 353 353 355 358 357 354 350 354 360 355 0 355 354 357 353 350 345 340 350 354 356 7 69 96 35 358 72 47 54 49 51